N851TB LDSP-LIBD

Flight info

Callsign N851TB
Flight time 0h 45m
Altitude 24000
Route ORAKA DCT BANAV
Aircraft TBM8/L-SDFGRWY/S

Departure

Time 2026-04-27 18:02
Airport Split Saint Jerome Airport (LDSP)

Arrival

Time 2026-04-27 18:48
Airport Bari Karol Wojtyła International Airport (LIBD)
Time Latitude Longitude Altitude Speed Heading
2026-04-27 17:45 43.53570 16.29519 63 ft 0 kts 117°
2026-04-27 17:56 43.53585 16.29529 60 ft 10 kts 348°
2026-04-27 17:56 43.53644 16.29583 60 ft 9 kts 52°
2026-04-27 17:56 43.53664 16.29597 62 ft 0 kts 348°
2026-04-27 17:57 43.53667 16.29596 62 ft 4 kts 343°
2026-04-27 17:57 43.53692 16.29532 66 ft 8 kts 281°
2026-04-27 17:57 43.53710 16.29470 71 ft 6 kts 353°
2026-04-27 17:57 43.53718 16.29474 72 ft 0 kts 48°
2026-04-27 17:58 43.53720 16.29477 74 ft 0 kts 52°
2026-04-27 18:01 43.53727 16.29489 71 ft 15 kts 52°
2026-04-27 18:01 43.53914 16.29833 68 ft 76 kts 52°
2026-04-27 18:01 43.54332 16.30573 209 ft 109 kts 50°
2026-04-27 18:02 43.54757 16.31502 568 ft 124 kts 62°
2026-04-27 18:02 43.54912 16.32738 836 ft 141 kts 100°
2026-04-27 18:02 43.54546 16.34043 1204 ft 147 kts 115°
2026-04-27 18:02 43.54123 16.35311 1686 ft 145 kts 115°
2026-04-27 18:03 43.53441 16.36307 2116 ft 145 kts 148°
2026-04-27 18:03 43.52575 16.37023 2551 ft 146 kts 146°
2026-04-27 18:03 43.51733 16.37806 3105 ft 146 kts 144°
2026-04-27 18:03 43.50875 16.38578 3667 ft 148 kts 147°
2026-04-27 18:04 43.49997 16.39329 4237 ft 149 kts 147°
2026-04-27 18:04 43.49113 16.40080 4810 ft 150 kts 148°
2026-04-27 18:04 43.48224 16.40833 5364 ft 151 kts 148°
2026-04-27 18:04 43.47329 16.41594 5915 ft 152 kts 148°
2026-04-27 18:05 43.46430 16.42360 6473 ft 152 kts 149°
2026-04-27 18:05 43.45525 16.43134 6996 ft 154 kts 148°
2026-04-27 18:05 43.44920 16.43649 7340 ft 155 kts 148°
2026-04-27 18:05 43.44002 16.44431 7861 ft 156 kts 148°
2026-04-27 18:06 43.43074 16.45222 8380 ft 158 kts 148°
2026-04-27 18:06 43.42134 16.46022 8907 ft 159 kts 148°
2026-04-27 18:06 43.41188 16.46827 9422 ft 161 kts 148°
2026-04-27 18:06 43.40232 16.47641 9947 ft 162 kts 148°
2026-04-27 18:07 43.39265 16.48465 10407 ft 165 kts 148°
2026-04-27 18:07 43.38282 16.49302 10865 ft 167 kts 148°
2026-04-27 18:07 43.37283 16.50150 11325 ft 170 kts 148°
2026-04-27 18:07 43.36269 16.51011 11792 ft 172 kts 148°
2026-04-27 18:08 43.35258 16.51871 12243 ft 174 kts 148°
2026-04-27 18:08 43.34218 16.52754 12699 ft 177 kts 148°
2026-04-27 18:08 43.33150 16.53660 13177 ft 179 kts 148°
2026-04-27 18:08 43.32097 16.54554 13630 ft 182 kts 148°
2026-04-27 18:09 43.31016 16.55472 14068 ft 184 kts 148°
2026-04-27 18:09 43.29922 16.56399 14479 ft 186 kts 148°
2026-04-27 18:09 43.28816 16.57337 14888 ft 188 kts 148°
2026-04-27 18:09 43.27700 16.58286 15296 ft 190 kts 148°
2026-04-27 18:10 43.26572 16.59243 15706 ft 191 kts 148°
2026-04-27 18:10 43.25429 16.60209 16111 ft 194 kts 148°
2026-04-27 18:10 43.24280 16.61181 16514 ft 196 kts 148°
2026-04-27 18:10 43.23116 16.62165 16913 ft 197 kts 148°
2026-04-27 18:11 43.21941 16.63158 17314 ft 199 kts 148°
2026-04-27 18:11 43.20751 16.64162 17720 ft 201 kts 148°
2026-04-27 18:11 43.19552 16.65176 18120 ft 203 kts 148°
2026-04-27 18:11 43.18346 16.66194 18502 ft 205 kts 148°
2026-04-27 18:12 43.17141 16.67211 18836 ft 206 kts 148°
2026-04-27 18:12 43.15914 16.68247 19172 ft 208 kts 148°
2026-04-27 18:12 43.14679 16.69288 19523 ft 209 kts 148°
2026-04-27 18:12 43.13439 16.70333 19869 ft 210 kts 148°
2026-04-27 18:13 43.12188 16.71386 20201 ft 212 kts 148°
2026-04-27 18:13 43.10924 16.72448 20529 ft 213 kts 148°
2026-04-27 18:13 43.09654 16.73515 20861 ft 215 kts 148°
2026-04-27 18:13 43.08375 16.74591 21191 ft 216 kts 148°
2026-04-27 18:14 43.07088 16.75673 21520 ft 218 kts 148°
2026-04-27 18:14 43.05792 16.76762 21846 ft 219 kts 148°
2026-04-27 18:14 43.04488 16.77858 22168 ft 221 kts 148°
2026-04-27 18:14 43.03174 16.78960 22492 ft 222 kts 148°
2026-04-27 18:15 43.01852 16.80069 22809 ft 224 kts 148°
2026-04-27 18:15 43.00521 16.81185 23122 ft 225 kts 148°
2026-04-27 18:15 42.99198 16.82293 23435 ft 227 kts 148°
2026-04-27 18:15 42.97849 16.83422 23731 ft 228 kts 148°
2026-04-27 18:16 42.96493 16.84557 23990 ft 229 kts 148°
2026-04-27 18:16 42.95091 16.85731 24049 ft 243 kts 148°
2026-04-27 18:16 42.93607 16.86964 24074 ft 256 kts 148°
2026-04-27 18:16 42.92045 16.88261 24081 ft 269 kts 148°
2026-04-27 18:17 42.90415 16.89621 24094 ft 280 kts 148°
2026-04-27 18:17 42.88725 16.91033 24091 ft 289 kts 148°
2026-04-27 18:17 42.86983 16.92487 24090 ft 297 kts 148°
2026-04-27 18:17 42.85197 16.93976 24088 ft 304 kts 148°
2026-04-27 18:18 42.83378 16.95500 24083 ft 309 kts 148°
2026-04-27 18:18 42.81532 16.97046 24082 ft 314 kts 148°
2026-04-27 18:18 42.79661 16.98605 24080 ft 317 kts 148°
2026-04-27 18:18 42.77792 17.00159 24079 ft 320 kts 148°
2026-04-27 18:19 42.75887 17.01741 24078 ft 322 kts 148°
2026-04-27 18:19 42.73971 17.03331 24072 ft 323 kts 148°
2026-04-27 18:19 42.72047 17.04927 24084 ft 325 kts 148°
2026-04-27 18:19 42.70114 17.06529 24081 ft 326 kts 148°
2026-04-27 18:20 42.68173 17.08136 24076 ft 327 kts 148°
2026-04-27 18:20 42.66227 17.09746 24075 ft 328 kts 148°
2026-04-27 18:20 42.64277 17.11359 24075 ft 328 kts 148°
2026-04-27 18:20 42.62324 17.12974 24075 ft 329 kts 148°
2026-04-27 18:21 42.60368 17.14589 24075 ft 329 kts 148°
2026-04-27 18:21 42.58410 17.16205 24075 ft 330 kts 148°
2026-04-27 18:21 42.56446 17.17813 24074 ft 330 kts 150°
2026-04-27 18:21 42.54342 17.19031 24071 ft 329 kts 164°
2026-04-27 18:22 42.52103 17.19569 24064 ft 327 kts 178°
2026-04-27 18:22 42.49876 17.19418 24067 ft 324 kts 191°
2026-04-27 18:22 42.47658 17.18888 24072 ft 323 kts 193°
2026-04-27 18:22 42.45448 17.18309 24075 ft 323 kts 194°
2026-04-27 18:23 42.43239 17.17730 24074 ft 323 kts 193°
2026-04-27 18:23 42.41027 17.17162 24072 ft 324 kts 193°
2026-04-27 18:23 42.38806 17.16608 24073 ft 324 kts 193°
2026-04-27 18:23 42.36589 17.16067 24076 ft 324 kts 193°
2026-04-27 18:24 42.34370 17.15532 24076 ft 324 kts 193°
2026-04-27 18:24 42.32151 17.15004 24075 ft 324 kts 193°
2026-04-27 18:24 42.29937 17.14480 24075 ft 324 kts 193°
2026-04-27 18:24 42.27713 17.13955 24075 ft 324 kts 193°
2026-04-27 18:25 42.25494 17.13432 24076 ft 324 kts 193°
2026-04-27 18:25 42.23276 17.12910 24076 ft 324 kts 193°
2026-04-27 18:25 42.21058 17.12388 24076 ft 324 kts 193°
2026-04-27 18:25 42.18840 17.11867 24076 ft 324 kts 193°
2026-04-27 18:26 42.16622 17.11347 24075 ft 324 kts 193°
2026-04-27 18:26 42.14404 17.10826 24074 ft 323 kts 193°
2026-04-27 18:26 42.12186 17.10307 24072 ft 323 kts 193°
2026-04-27 18:26 42.10000 17.09795 24074 ft 323 kts 193°
2026-04-27 18:27 42.07786 17.09277 24073 ft 323 kts 193°
2026-04-27 18:27 42.05572 17.08759 24076 ft 323 kts 193°
2026-04-27 18:27 42.03364 17.08242 24076 ft 323 kts 193°
2026-04-27 18:27 42.01150 17.07726 24076 ft 323 kts 193°
2026-04-27 18:28 41.98933 17.07208 24082 ft 323 kts 193°
2026-04-27 18:28 41.96720 17.06692 24078 ft 323 kts 193°
2026-04-27 18:28 41.94506 17.06176 24077 ft 323 kts 193°
2026-04-27 18:28 41.92294 17.05661 24047 ft 323 kts 193°
2026-04-27 18:29 41.90062 17.05132 23816 ft 328 kts 193°
2026-04-27 18:29 41.87798 17.04596 23485 ft 334 kts 193°
2026-04-27 18:29 41.85494 17.04051 23079 ft 339 kts 193°
2026-04-27 18:29 41.83162 17.03506 22676 ft 341 kts 192°
2026-04-27 18:30 41.80811 17.02962 22232 ft 344 kts 192°
2026-04-27 18:30 41.78445 17.02419 21781 ft 345 kts 192°
2026-04-27 18:30 41.76074 17.01874 21352 ft 346 kts 192°
2026-04-27 18:30 41.73709 17.01306 20916 ft 345 kts 193°
2026-04-27 18:31 41.71378 17.00585 20490 ft 343 kts 197°
2026-04-27 18:31 41.69089 16.99713 20071 ft 341 kts 198°
2026-04-27 18:31 41.66813 16.98831 19659 ft 340 kts 198°
2026-04-27 18:31 41.64547 16.97959 19251 ft 338 kts 198°
2026-04-27 18:32 41.62292 16.97095 18846 ft 336 kts 198°
2026-04-27 18:32 41.60048 16.96240 18449 ft 334 kts 198°
2026-04-27 18:32 41.57817 16.95390 18006 ft 332 kts 197°
2026-04-27 18:32 41.55599 16.94550 17552 ft 330 kts 197°
2026-04-27 18:33 41.53404 16.93712 17109 ft 326 kts 197°
2026-04-27 18:33 41.51252 16.92848 16675 ft 320 kts 200°
2026-04-27 18:33 41.49180 16.91804 16232 ft 316 kts 203°
2026-04-27 18:33 41.47141 16.90731 15804 ft 313 kts 202°
2026-04-27 18:34 41.45119 16.89691 15380 ft 310 kts 202°
2026-04-27 18:34 41.43112 16.88674 14962 ft 307 kts 201°
2026-04-27 18:34 41.41120 16.87676 14554 ft 305 kts 201°
2026-04-27 18:34 41.39144 16.86691 14145 ft 302 kts 201°
2026-04-27 18:35 41.37183 16.85718 13723 ft 299 kts 200°
2026-04-27 18:35 41.35237 16.84755 13272 ft 297 kts 200°
2026-04-27 18:35 41.33308 16.83799 12865 ft 294 kts 200°
2026-04-27 18:35 41.31400 16.82855 12477 ft 291 kts 201°
2026-04-27 18:36 41.29624 16.81626 12091 ft 287 kts 218°
2026-04-27 18:36 41.28296 16.79683 11703 ft 284 kts 239°
2026-04-27 18:36 41.27356 16.77398 11329 ft 281 kts 241°
2026-04-27 18:36 41.26349 16.75175 10962 ft 279 kts 239°
2026-04-27 18:37 41.25338 16.72976 10594 ft 277 kts 240°
2026-04-27 18:37 41.24365 16.70820 10243 ft 275 kts 240°
2026-04-27 18:37 41.23391 16.68646 9875 ft 273 kts 240°
2026-04-27 18:37 41.22426 16.66481 9485 ft 271 kts 240°
2026-04-27 18:38 41.21466 16.64325 9090 ft 270 kts 240°
2026-04-27 18:38 41.20598 16.62124 8706 ft 267 kts 247°
2026-04-27 18:38 41.19965 16.59815 8326 ft 266 kts 251°
2026-04-27 18:38 41.19323 16.57529 7953 ft 264 kts 250°
2026-04-27 18:39 41.18663 16.55266 7588 ft 262 kts 250°
2026-04-27 18:39 41.18018 16.53020 7221 ft 259 kts 251°
2026-04-27 18:39 41.17366 16.50827 6864 ft 246 kts 250°
2026-04-27 18:39 41.16763 16.48834 6495 ft 223 kts 249°
2026-04-27 18:40 41.16193 16.46979 6107 ft 212 kts 249°
2026-04-27 18:40 41.15641 16.45200 5754 ft 207 kts 249°
2026-04-27 18:40 41.15098 16.43447 5377 ft 204 kts 249°
2026-04-27 18:40 41.14382 16.41857 5001 ft 204 kts 221°
2026-04-27 18:41 41.13014 16.41358 4767 ft 216 kts 173°
2026-04-27 18:41 41.11577 16.42005 4617 ft 220 kts 158°
2026-04-27 18:41 41.10285 16.43078 4497 ft 222 kts 131°
2026-04-27 18:41 41.09336 16.44701 4379 ft 224 kts 126°
2026-04-27 18:42 41.08413 16.46366 4266 ft 224 kts 126°
2026-04-27 18:42 41.07817 16.47482 4183 ft 225 kts 122°
2026-04-27 18:42 41.07491 16.50141 3782 ft 223 kts 83°
2026-04-27 18:42 41.07666 16.52084 3521 ft 208 kts 80°
2026-04-27 18:43 41.07923 16.53960 3266 ft 206 kts 77°
2026-04-27 18:43 41.08240 16.55797 3079 ft 202 kts 75°
2026-04-27 18:43 41.08610 16.57606 2724 ft 203 kts 70°
2026-04-27 18:43 41.09088 16.59260 2475 ft 183 kts 69°
2026-04-27 18:44 41.09523 16.60742 2263 ft 164 kts 70°
2026-04-27 18:44 41.09916 16.62116 2061 ft 156 kts 71°
2026-04-27 18:44 41.10284 16.63450 1866 ft 153 kts 72°
2026-04-27 18:44 41.10637 16.64724 1666 ft 138 kts 71°
2026-04-27 18:45 41.10970 16.65882 1496 ft 132 kts 71°
2026-04-27 18:45 41.11282 16.66982 1340 ft 120 kts 71°
2026-04-27 18:45 41.11541 16.67891 1190 ft 96 kts 70°
2026-04-27 18:45 41.11772 16.68700 1067 ft 92 kts 70°
2026-04-27 18:46 41.11992 16.69487 945 ft 90 kts 71°
2026-04-27 18:46 41.12206 16.70266 829 ft 90 kts 70°
2026-04-27 18:46 41.12429 16.71048 714 ft 91 kts 67°
2026-04-27 18:46 41.12664 16.71824 589 ft 90 kts 70°
2026-04-27 18:47 41.12878 16.72597 453 ft 91 kts 71°
2026-04-27 18:47 41.13097 16.73390 323 ft 90 kts 69°
2026-04-27 18:47 41.13314 16.74158 182 ft 87 kts 70°
2026-04-27 18:47 41.13501 16.74822 133 ft 63 kts 69°
2026-04-27 18:48 41.13636 16.75292 135 ft 47 kts 69°
2026-04-27 18:48 41.13689 16.75604 134 ft 26 kts 105°
2026-04-27 18:48 41.13659 16.75754 136 ft 11 kts 105°
2026-04-27 18:48 41.13634 16.75898 131 ft 12 kts 103°
2026-04-27 18:49 41.13633 16.75939 131 ft 10 kts 79°
2026-04-27 18:49 41.13668 16.76068 130 ft 19 kts 67°
2026-04-27 18:49 41.13721 16.76246 129 ft 19 kts 71°
2026-04-27 18:49 41.13761 16.76396 128 ft 18 kts 69°
2026-04-27 18:50 41.13776 16.76543 129 ft 15 kts 148°
2026-04-27 18:50 41.13735 16.76636 131 ft 12 kts 71°
2026-04-27 18:50 41.13764 16.76736 128 ft 12 kts 68°
2026-04-27 18:50 41.13769 16.76837 126 ft 10 kts 105°
2026-04-27 18:51 41.13753 16.76871 126 ft 0 kts 165°
2026-04-27 18:51 41.13737 16.76877 129 ft 6 kts 161°
2026-04-27 18:51 41.13715 16.76879 129 ft 0 kts 213°